BOV663 SLVR-SLAL

Flight info

Callsign BOV663
Flight time 0h 42m
Altitude 24000
Route EKIKO1 EKIKO DCT POTBO DCT DOPGO
Aircraft B737/M-SDE2E3FGHIRWXY/LB1

Departure

Time 2026-05-08 14:36
Airport Viru Viru International Airport (SLVR)

Arrival

Time 2026-05-08 15:19
Airport Alcantarí International Airport (SLAL)
Time Latitude Longitude Altitude Speed Heading
2026-05-08 14:18 -17.64683 -63.14026 1230 ft 0 kts 237°
2026-05-08 14:26 -17.64681 -63.14023 1230 ft 2 kts 236°
2026-05-08 14:27 -17.64672 -63.14009 1230 ft 2 kts 235°
2026-05-08 14:27 -17.64663 -63.13994 1230 ft 2 kts 237°
2026-05-08 14:27 -17.64654 -63.13980 1230 ft 2 kts 236°
2026-05-08 14:27 -17.64645 -63.13965 1230 ft 2 kts 249°
2026-05-08 14:28 -17.64648 -63.13950 1230 ft 2 kts 324°
2026-05-08 14:28 -17.64662 -63.13941 1230 ft 2 kts 328°
2026-05-08 14:28 -17.64671 -63.13935 1230 ft 1 kts 327°
2026-05-08 14:28 -17.64671 -63.13934 1230 ft 0 kts 327°
2026-05-08 14:30 -17.64639 -63.13956 1230 ft 13 kts 327°
2026-05-08 14:30 -17.64564 -63.14004 1230 ft 12 kts 342°
2026-05-08 14:30 -17.64487 -63.13996 1230 ft 12 kts 51°
2026-05-08 14:31 -17.64440 -63.13923 1230 ft 12 kts 57°
2026-05-08 14:31 -17.64390 -63.13856 1230 ft 12 kts 33°
2026-05-08 14:31 -17.64318 -63.13879 1230 ft 11 kts 327°
2026-05-08 14:32 -17.64189 -63.13965 1230 ft 11 kts 327°
2026-05-08 14:32 -17.64128 -63.14006 1230 ft 10 kts 327°
2026-05-08 14:32 -17.64069 -63.14046 1230 ft 10 kts 327°
2026-05-08 14:32 -17.64010 -63.14084 1230 ft 10 kts 335°
2026-05-08 14:33 -17.63951 -63.14060 1229 ft 10 kts 50°
2026-05-08 14:33 -17.63915 -63.14003 1228 ft 9 kts 57°
2026-05-08 14:33 -17.63867 -63.13962 1227 ft 9 kts 20°
2026-05-08 14:33 -17.63809 -63.13985 1227 ft 12 kts 328°
2026-05-08 14:34 -17.63659 -63.14085 1229 ft 38 kts 327°
2026-05-08 14:34 -17.63384 -63.14270 1230 ft 52 kts 326°
2026-05-08 14:34 -17.63222 -63.14392 1228 ft 13 kts 300°
2026-05-08 14:34 -17.63211 -63.14419 1228 ft 11 kts 298°
2026-05-08 14:35 -17.63182 -63.14435 1228 ft 1 kts
2026-05-08 14:35 -17.63176 -63.14428 1228 ft 2 kts 54°
2026-05-08 14:35 -17.63183 -63.14408 1228 ft 7 kts 121°
2026-05-08 14:35 -17.63208 -63.14388 1228 ft 0 kts 149°
2026-05-08 14:36 -17.63222 -63.14379 1228 ft 19 kts 149°
2026-05-08 14:36 -17.63598 -63.14128 1229 ft 106 kts 147°
2026-05-08 14:36 -17.64429 -63.13573 1324 ft 170 kts 147°
2026-05-08 14:36 -17.65217 -63.13041 2211 ft 169 kts 149°
2026-05-08 14:37 -17.66116 -63.12499 3269 ft 166 kts 155°
2026-05-08 14:37 -17.67299 -63.12285 3928 ft 192 kts 191°
2026-05-08 14:37 -17.68422 -63.13128 4465 ft 214 kts 235°
2026-05-08 14:38 -17.68873 -63.14642 5100 ft 224 kts 258°
2026-05-08 14:38 -17.69105 -63.16345 5448 ft 244 kts 262°
2026-05-08 14:38 -17.69325 -63.18133 6069 ft 250 kts 265°
2026-05-08 14:38 -17.69884 -63.19866 6775 ft 258 kts 244°
2026-05-08 14:39 -17.70882 -63.21537 7150 ft 278 kts 240°
2026-05-08 14:39 -17.71954 -63.23227 7965 ft 281 kts 240°
2026-05-08 14:39 -17.73040 -63.24926 8944 ft 281 kts 240°
2026-05-08 14:39 -17.74135 -63.26653 9799 ft 285 kts 242°
2026-05-08 14:40 -17.75237 -63.28406 10536 ft 292 kts 242°
2026-05-08 14:40 -17.76392 -63.30267 10749 ft 318 kts 242°
2026-05-08 14:40 -17.77643 -63.32293 10963 ft 341 kts 241°
2026-05-08 14:40 -17.78956 -63.34420 11503 ft 350 kts 241°
2026-05-08 14:41 -17.80290 -63.36577 12266 ft 352 kts 241°
2026-05-08 14:41 -17.81612 -63.38717 12980 ft 356 kts 240°
2026-05-08 14:41 -17.82978 -63.40934 13693 ft 359 kts 240°
2026-05-08 14:41 -17.84320 -63.43115 14312 ft 362 kts 240°
2026-05-08 14:42 -17.85696 -63.45355 14941 ft 365 kts 240°
2026-05-08 14:42 -17.87074 -63.47601 15525 ft 367 kts 239°
2026-05-08 14:42 -17.88463 -63.49867 16116 ft 370 kts 239°
2026-05-08 14:42 -17.89863 -63.52151 16738 ft 373 kts 239°
2026-05-08 14:43 -17.91277 -63.54458 17334 ft 376 kts 238°
2026-05-08 14:43 -17.92685 -63.56758 17903 ft 379 kts 238°
2026-05-08 14:43 -17.94116 -63.59096 18461 ft 382 kts 238°
2026-05-08 14:43 -17.95555 -63.61447 18952 ft 384 kts 238°
2026-05-08 14:44 -17.97003 -63.63816 19544 ft 383 kts 238°
2026-05-08 14:44 -17.98436 -63.66158 20279 ft 378 kts 238°
2026-05-08 14:44 -17.99376 -63.67697 20785 ft 375 kts 238°
2026-05-08 14:44 -18.00778 -63.69991 21501 ft 372 kts 238°
2026-05-08 14:45 -18.02646 -63.73051 22483 ft 368 kts 238°
2026-05-08 14:45 -18.03557 -63.74543 22995 ft 366 kts 238°
2026-05-08 14:45 -18.04931 -63.76793 23687 ft 364 kts 239°
2026-05-08 14:45 -18.06304 -63.79045 24013 ft 365 kts 239°
2026-05-08 14:46 -18.07670 -63.81285 24057 ft 364 kts 239°
2026-05-08 14:46 -18.09038 -63.83531 24101 ft 365 kts 239°
2026-05-08 14:46 -18.10410 -63.85783 24098 ft 366 kts 239°
2026-05-08 14:46 -18.11766 -63.88010 24101 ft 365 kts 239°
2026-05-08 14:47 -18.13138 -63.90262 24091 ft 366 kts 239°
2026-05-08 14:47 -18.14505 -63.92508 24097 ft 365 kts 239°
2026-05-08 14:47 -18.15878 -63.94764 24099 ft 366 kts 239°
2026-05-08 14:47 -18.17251 -63.97022 24098 ft 366 kts 239°
2026-05-08 14:48 -18.18620 -63.99272 24094 ft 366 kts 239°
2026-05-08 14:48 -18.19992 -64.01529 24085 ft 365 kts 239°
2026-05-08 14:48 -18.21361 -64.03781 24089 ft 366 kts 239°
2026-05-08 14:48 -18.22730 -64.06035 24088 ft 366 kts 239°
2026-05-08 14:49 -18.24106 -64.08302 24076 ft 366 kts 239°
2026-05-08 14:49 -18.25475 -64.10556 24079 ft 366 kts 239°
2026-05-08 14:49 -18.26866 -64.12851 24092 ft 379 kts 239°
2026-05-08 14:49 -18.28308 -64.15230 24091 ft 391 kts 239°
2026-05-08 14:50 -18.29789 -64.17674 24089 ft 401 kts 239°
2026-05-08 14:50 -18.31282 -64.20137 24084 ft 409 kts 239°
2026-05-08 14:50 -18.32829 -64.22689 24084 ft 417 kts 239°
2026-05-08 14:50 -18.34405 -64.25290 24078 ft 423 kts 239°
2026-05-08 14:51 -18.36036 -64.27899 24072 ft 429 kts 234°
2026-05-08 14:51 -18.38023 -64.30283 24069 ft 436 kts 226°
2026-05-08 14:51 -18.40328 -64.32401 24070 ft 443 kts 219°
2026-05-08 14:51 -18.42943 -64.34170 24071 ft 449 kts 213°
2026-05-08 14:52 -18.45641 -64.35794 24064 ft 453 kts 212°
2026-05-08 14:52 -18.51181 -64.39053 24068 ft 459 kts 211°
2026-05-08 14:52 -18.53970 -64.40711 24068 ft 461 kts 212°
2026-05-08 14:53 -18.56768 -64.42393 24062 ft 463 kts 212°
2026-05-08 14:53 -18.59572 -64.44085 24068 ft 465 kts 212°
2026-05-08 14:53 -18.62385 -64.45794 24064 ft 467 kts 212°
2026-05-08 14:53 -18.65203 -64.47509 24059 ft 469 kts 212°
2026-05-08 14:54 -18.68027 -64.49228 24069 ft 469 kts 212°
2026-05-08 14:54 -18.70863 -64.50954 24062 ft 471 kts 212°
2026-05-08 14:54 -18.73711 -64.52685 24058 ft 472 kts 212°
2026-05-08 14:54 -18.76552 -64.54413 24056 ft 472 kts 212°
2026-05-08 14:55 -18.79406 -64.56156 24052 ft 473 kts 212°
2026-05-08 14:55 -18.82216 -64.57955 24045 ft 473 kts 213°
2026-05-08 14:55 -18.84954 -64.59771 24042 ft 463 kts 214°
2026-05-08 14:55 -18.87584 -64.61533 24031 ft 431 kts 214°
2026-05-08 14:56 -18.90040 -64.63179 24031 ft 408 kts 214°
2026-05-08 14:56 -18.92382 -64.64744 24039 ft 389 kts 214°
2026-05-08 14:56 -18.94627 -64.66239 23987 ft 374 kts 214°
2026-05-08 14:56 -18.96811 -64.67693 23700 ft 368 kts 214°
2026-05-08 14:57 -18.98972 -64.69129 23261 ft 365 kts 214°
2026-05-08 14:57 -19.01118 -64.70553 22822 ft 363 kts 214°
2026-05-08 14:57 -19.03245 -64.71965 22371 ft 360 kts 214°
2026-05-08 14:57 -19.05365 -64.73371 21959 ft 357 kts 214°
2026-05-08 14:58 -19.07385 -64.74711 21532 ft 356 kts 214°
2026-05-08 14:58 -19.09476 -64.76099 21096 ft 353 kts 214°
2026-05-08 14:58 -19.11527 -64.77459 20691 ft 351 kts 213°
2026-05-08 14:58 -19.13591 -64.78830 20262 ft 350 kts 213°
2026-05-08 14:59 -19.15658 -64.80202 19836 ft 349 kts 213°
2026-05-08 14:59 -19.19767 -64.82932 19014 ft 348 kts 213°
2026-05-08 14:59 -19.21813 -64.84292 18587 ft 347 kts 213°
2026-05-08 15:00 -19.23858 -64.85651 18133 ft 347 kts 213°
2026-05-08 15:00 -19.25875 -64.86992 17995 ft 336 kts 213°
2026-05-08 15:00 -19.27825 -64.88289 17831 ft 327 kts 213°
2026-05-08 15:00 -19.29722 -64.89551 17690 ft 318 kts 213°
2026-05-08 15:01 -19.31572 -64.90782 17568 ft 309 kts 213°
2026-05-08 15:01 -19.31678 -64.90852 17560 ft 309 kts 213°
2026-05-08 15:04 -19.32597 -64.91465 17485 ft 305 kts 214°
2026-05-08 15:05 -19.34367 -64.92642 17360 ft 294 kts 214°
2026-05-08 15:05 -19.36053 -64.93764 17223 ft 279 kts 214°
2026-05-08 15:05 -19.37580 -64.94950 16888 ft 271 kts 229°
2026-05-08 15:05 -19.38606 -64.96565 16599 ft 263 kts 245°
2026-05-08 15:06 -19.39365 -64.98353 16068 ft 268 kts 247°
2026-05-08 15:06 -19.39911 -65.00228 15619 ft 268 kts 258°
2026-05-08 15:06 -19.40254 -65.02162 15254 ft 266 kts 258°
2026-05-08 15:06 -19.40588 -65.04084 14886 ft 264 kts 259°
2026-05-08 15:07 -19.40933 -65.05998 14469 ft 266 kts 258°
2026-05-08 15:07 -19.41181 -65.07620 14218 ft 259 kts 267°
2026-05-08 15:15 -19.41099 -65.08627 13947 ft 261 kts 283°
2026-05-08 15:16 -19.40313 -65.10313 13636 ft 252 kts 308°
2026-05-08 15:16 -19.39062 -65.11483 13587 ft 233 kts 325°
2026-05-08 15:16 -19.37597 -65.12096 13303 ft 223 kts 342°
2026-05-08 15:16 -19.36102 -65.12426 12963 ft 211 kts 346°
2026-05-08 15:17 -19.34698 -65.12701 12718 ft 193 kts 346°
2026-05-08 15:17 -19.33450 -65.12942 12516 ft 179 kts 345°
2026-05-08 15:17 -19.32202 -65.13191 11925 ft 188 kts 347°
2026-05-08 15:17 -19.30886 -65.13456 11432 ft 192 kts 347°
2026-05-08 15:18 -19.29616 -65.13727 11156 ft 179 kts 346°
2026-05-08 15:18 -19.28443 -65.13972 10825 ft 168 kts 347°
2026-05-08 15:18 -19.27330 -65.14184 10587 ft 157 kts 347°
2026-05-08 15:18 -19.26272 -65.14399 10375 ft 153 kts 348°
2026-05-08 15:19 -19.25246 -65.14626 10187 ft 145 kts 345°
2026-05-08 15:19 -19.24346 -65.14816 10188 ft 110 kts 350°
2026-05-08 15:19 -19.23980 -65.14891 10188 ft 33 kts 348°
2026-05-08 15:19 -19.23835 -65.14907 10187 ft 28 kts 359°
2026-05-08 15:20 -19.23791 -65.14912 10187 ft 25 kts 351°
2026-05-08 15:20 -19.23741 -65.14924 10187 ft 1 kts 285°
2026-05-08 15:20 -19.23752 -65.14934 10187 ft 6 kts 204°
2026-05-08 15:20 -19.23861 -65.14912 10187 ft 23 kts 168°
2026-05-08 15:21 -19.24049 -65.14879 10188 ft 32 kts 171°
2026-05-08 15:21 -19.24273 -65.14827 10188 ft 32 kts 170°
2026-05-08 15:21 -19.24396 -65.14846 10188 ft 9 kts 252°
2026-05-08 15:21 -19.24413 -65.14908 10187 ft 9 kts 250°
2026-05-08 15:22 -19.24459 -65.14954 10187 ft 12 kts 192°
2026-05-08 15:22 -19.24539 -65.14945 10186 ft 12 kts 170°
2026-05-08 15:22 -19.24612 -65.14955 10185 ft 9 kts 233°
2026-05-08 15:22 -19.24615 -65.14970 10186 ft 6 kts 261°
2026-05-08 15:23 -19.24619 -65.15022 10186 ft 4 kts 283°
2026-05-08 15:23 -19.24598 -65.15033 10186 ft 2 kts 23°
2026-05-08 15:23 -19.24596 -65.15023 10186 ft 0 kts 92°